CAPE
177 226 188 49 28 0 0 41 302 424 675 800 953 1290 1175 995 1024 1096 991 936 1034 939 899 828 968 1012 995 962 873 923 853 897 1049 1147 1017 1035 1200 1858 2238 2011 1890 2401 2216
236 290 269 184 39 0 0 0 3 259 380 694 898 1036 1168 998 1085 1156 1179 1094 890 888 974 875 895 836 1028 1271 1559 1550 1356 907 1038 1327 1174 1376 1762 1829 1879 2059 2260 2174 2025
235 341 271 195 133 84 68 1 0 36 102 252 565 989 1068 1110 1045 1119 1240 1218 1078 1001 1040 985 1140 1218 1285 1174 1187 1191 1471 1403 1445 1414 1507 1722 1701 1678 2111 2258 2374 2366 1791
246 230 293 200 154 117 30 59 34 6 33 86 414 752 1015 1103 1141 1183 1106 1188 1086 982 1053 1081 1249 1204 1401 1479 1413 1471 1319 1410 1571 1680 1786 1791 1783 1826 1760 1856 2495 2399 2016
204 205 240 239 95 101 0 0 0 0 0 47 206 621 1009 1197 1123 1279 1257 1178 1150 1098 1063 1067 1180 1304 1354 1384 1526 1822 1764 1785 1886 2075 2060 1882 2159 2088 2319 2180 1828 1816 1826
232 285 268 218 142 81 56 48 18 0 0 0 46 366 821 1078 1127 1189 1179 1406 1437 1463 1495 1421 1406 1446 1420 1329 1368 1369 1506 2173 2272 2013 2312 2075 2365 2059 2152 1847 1659 1708 1876
211 216 238 282 274 236 226 139 114 121 75 22 10 50 334 687 916 1153 1227 1320 1376 1392 1492 1517 1269 1147 1031 1508 1254 1173 1301 1508 1561 2154 2213 2321 2298 2397 2201 2080 1698 1750 1644
234 416 296 323 356 357 357 370 368 350 348 282 190 83 115 190 320 871 1060 1067 1194 1190 1171 1195 1230 1337 1201 1283 1436 1515 1536 1543 1452 1436 1468 1764 2102 2142 2024 1892 1545 1552 1492
174 445 586 656 451 426 457 518 457 532 526 485 425 331 248 205 86 204 601 595 894 1158 1079 1069 1150 1242 1045 1034 1327 1610 1702 1640 1268 1169 1200 1301 1346 1313 1265 1337 1211 1442 1652
266 293 666 593 708 752 814 762 655 715 837 785 761 714 663 594 521 454 336 242 336 589 967 1080 901 1029 1106 1119 1108 1433 1499 1520 1542 1385 1112 1047 1116 1056 922 974 1026 1307 1660
322 340 287 371 577 1090 1074 1030 894 903 955 1073 1154 1065 947 947 936 848 753 579 508 499 687 737 1172 925 1033 1002 950 1175 1184 1429 1333 1122 1310 1151 1026 960 986 1083 995 1068 1699
9 114 321 362 554 683 779 1254 1645 1222 1220 1176 1155 1241 1175 1154 1112 1044 1030 838 696 604 588 631 710 546 670 716 699 686 779 898 1004 1089 994 964 1075 1142 1198 1264 1661 1197 1477
0 0 22 101 110 299 726 344 319 987 1337 1161 1154 1166 1261 1258 1241 1200 1108 1045 792 689 718 721 701 741 757 719 764 818 765 741 784 777 781 810 934 953 996 1099 1162 1327 1294
0 0 0 15 65 48 9 33 195 941 1393 1296 1396 1353 1283 1323 1292 1232 1165 1043 1004 905 826 843 943 919 949 1116 1227 1295 1286 1262 1218 1152 1219 1340 1316 1083 1088 1187 1110 1311 1767
0 0 0 0 20 5 21 94 233 555 1320 1445 1533 1544 1460 1266 1350 1284 1198 1152 1104 1032 982 973 997 1023 1084 1156 1257 1379 1453 1513 1562 1583 1575 1645 1639 1318 1247 1156 1067 1591 2429
0 0 0 0 0 2 0 22 315 694 1037 1346 1343 1374 1459 1280 1239 1249 1174 1167 1183 1127 1082 1103 1114 1101 976 1209 1105 1388 1090 1044 1178 1364 1623 1810 1869 1727 1421 1221 1386 2074 2462
0 0 0 0 0 4 0 0 80 500 853 1598 1655 1434 1305 1318 1297 1310 1307 1200 1227 1235 1320 1275 1272 1329 1331 1487 1921 1452 1442 1062 1118 1395 1693 1843 1863 1848 1762 1660 1681 1974 2071
0 0 0 0 0 0 0 0 2 222 436 887 1579 1642 1492 1301 1322 1313 1263 1421 1437 1419 1403 1527 1612 1664 1652 1937 2070 2034 1823 1731 1878 2038 1978 1862 1908 1853 1759 1697 1697 1974 2208
0 0 0 0 0 0 0 0 0 9 370 552 1316 1719 1690 1725 1550 1419 1441 1484 1578 1569 1639 1651 1632 1692 1642 1699 1690 2031 1690 1858 2010 2213 2206 1881 1985 1793 1695 1578 1711 1610 2108
0 0 0 0 0 0 0 0 0 0 82 442 920 1571 1765 1590 1705 1715 1789 1698 1736 1883 1893 1880 2032 2076 1939 1799 1963 1988 2097 1899 1956 2063 2072 2166 2176 2005 2015 1658 1623 1665 1425
0 0 0 0 0 0 0 0 0 0 0 268 664 1066 1467 1428 1555 1679 1864 1909 1926 1926 1957 1917 2023 1956 1711 1830 1809 2021 1706 1780 1702 1757 1926 1952 1702 1676 1576 1586 1410 1142 983
0 0 0 0 0 0 0 1 0 0 43 49 540 834 922 1376 1405 1519 1494 1540 1538 1616 1783 1795 1896 1974 1659 1588 1744 1635 1502 1504 1527 1651 1686 1438 1280 1300 1239 865 245 122 119
0 0 0 0 0 0 0 0 0 0 11 219 223 388 671 1015 978 1308 1398 1318 1068 1022 1112 1069 1454 1896 1883 1646 1469 1392 1137 1188 1317 1566 1176 945 750 596 623 436 136 76 51
0 0 0 0 0 0 0 0 0 0 12 132 155 327 484 812 942 737 861 965 1138 1174 1030 1140 1314 1622 1736 1466 1363 1242 801 797 940 622 696 632 457 293 161 69 58 47 216
2 10 9 1 0 0 0 1 0 0 4 49 44 258 364 624 576 445 467 627 874 1123 1168 985 1173 1397 1446 1266 1051 757 490 461 390 364 381 218 120 59 76 53 87 177 229
7 14 22 18 7 2 0 2 9 2 7 46 73 212 324 365 347 206 108 491 631 706 741 294 435 531 279 370 662 507 105 121 126 98 106 90 105 97 142 107 177 120 83
CIN
-13 -4 -2 -197 -186 0 0 -335 -268 -240 -76 -44 -150 -117 -122 -50 -59 -26 -18 -45 -29 -32 -31 -111 -114 -52 -70 -99 -57 -123 -74 -48 -54 -108 -113 -131 -237 -92 -146 -190 -164 -72 -70
-11 -4 -2 -2 -217 0 0 0 -20 -275 -172 -86 -53 -136 -123 -68 -46 -50 -36 -91 -98 -91 -93 -43 -111 -46 -106 -99 -34 -28 -30 -60 -98 -123 -115 -109 -114 -182 -198 -189 -149 -92 -176
-20 -6 -5 -3 -5 -302 -257 -3 0 -276 -313 -258 -176 -48 -119 -146 -123 -58 -47 -24 -108 -106 -37 -37 -87 -19 -14 -78 -96 -93 -19 -16 -35 -59 -126 -107 -152 -124 -157 -158 -152 -158 -214
-27 -29 -3 -3 -2 -11 -175 -243 -219 -53 -271 -332 -236 -180 -152 -145 -140 -139 -95 -45 -27 -123 -114 -104 -85 -87 -81 -81 -17 -12 -87 -76 -43 -58 -77 -73 -95 -137 -156 -159 -112 -129 -193
-49 -55 -18 -10 -6 -2 0 0 0 0 0 -353 -285 -207 -156 -132 -126 -127 -127 -131 -134 -137 -137 -127 -116 -67 -26 -45 -67 -69 -12 -25 -13 -8 -39 -67 -80 -95 -60 -73 -127 -167 -218
-63 -59 -46 -29 -36 -23 -14 -23 -22 0 0 0 -346 -236 -177 -129 -128 -88 -72 -101 -100 -99 -97 -116 -73 -40 -42 -51 -49 -50 -42 -35 -23 -22 -15 -50 -54 -83 -69 -89 -130 -128 -153
-141 -124 -120 -203 -233 -29 -22 -21 -33 -31 -32 -88 -365 -338 -259 -200 -152 -119 -86 -98 -101 -103 -100 -101 -89 -98 -124 -100 -99 -78 -58 -39 -40 -25 -14 -20 -32 -34 -42 -58 -93 -102 -146
-104 -90 -117 -100 -95 -160 -87 -26 -16 -17 -30 -38 -53 -155 -327 -298 -233 -160 -126 -91 -74 -95 -46 -49 -131 -116 -141 -124 -104 -91 -95 -97 -64 -55 -58 -93 -61 -64 -53 -61 -107 -116 -188
-131 -65 -42 -62 -119 -93 -145 -163 -51 -14 -26 -41 -63 -56 -73 -145 -146 -250 -156 -183 -136 -132 -167 -171 -156 -148 -92 -72 -102 -74 -72 -113 -143 -106 -106 -85 -75 -93 -84 -119 -158 -134 -144
-80 -84 -29 -62 -57 -59 -54 -71 -80 -43 -48 -41 -47 -48 -67 -80 -68 -82 -86 -205 -197 -172 -146 -161 -138 -106 -104 -94 -75 -95 -82 -137 -119 -136 -78 -116 -128 -157 -166 -124 -156 -183 -126
-15 -30 -47 -49 -52 -20 -20 -33 -43 -41 -50 -54 -46 -60 -70 -82 -79 -74 -74 -81 -152 -180 -186 -175 -156 -206 -160 -151 -133 -123 -151 -132 -115 -120 -127 -139 -116 -124 -139 -124 -149 -231 -116
-88 -17 -15 -17 -17 -37 -36 -11 -1 -15 -34 -68 -72 -63 -78 -75 -84 -82 -66 -92 -108 -144 -212 -219 -220 -252 -231 -202 -176 -178 -163 -124 -93 -111 -155 -200 -190 -192 -190 -184 -142 -137 -198
0 0 -46 -31 -66 -54 -14 -85 -126 -37 -34 -92 -88 -104 -102 -111 -112 -82 -91 -81 -96 -122 -142 -210 -199 -190 -173 -146 -136 -127 -122 -121 -126 -128 -135 -149 -215 -215 -225 -177 -221 -222 -229
0 0 0 -70 -32 -29 -109 -85 -103 -39 -22 -67 -70 -110 -105 -101 -120 -111 -96 -94 -89 -78 -100 -159 -152 -146 -142 -104 -99 -92 -74 -81 -79 -87 -91 -94 -86 -108 -106 -94 -220 -172 -100
0 0 0 0 -25 -7 -8 -153 -173 -134 -29 -42 -70 -87 -124 -145 -136 -116 -108 -120 -105 -91 -73 -78 -94 -93 -107 -101 -112 -109 -97 -75 -62 -69 -61 -59 -56 -83 -108 -89 -136 -109 -17
0 0 0 0 0 -2 -7 -81 -94 -59 -70 -55 -78 -82 -120 -145 -125 -121 -114 -146 -132 -73 -49 -88 -116 -111 -138 -112 -134 -118 -152 -147 -119 -78 -55 -41 -36 -48 -84 -93 -107 -29 -15
0 0 0 0 0 0 0 -2 -166 -40 -78 -62 -68 -95 -124 -122 -94 -77 -61 -83 -55 -57 -52 -84 -79 -74 -87 -82 -46 -97 -118 -177 -131 -76 -51 -45 -44 -39 -43 -52 -47 -19 -36
0 0 0 0 0 0 0 0 -46 -139 -123 -87 -38 -88 -115 -110 -112 -93 -43 -20 -36 -52 -86 -41 -45 -40 -42 -33 -33 -51 -78 -73 -62 -43 -34 -39 -15 -30 -50 -69 -53 -17 -5
0 0 0 0 0 0 0 0 0 -52 -79 -103 -69 -163 -99 -59 -64 -78 -64 -42 -50 -65 -65 -57 -41 -21 -21 -29 -49 -35 -60 -48 -33 -16 -18 -26 -25 -47 -69 -75 -62 -70 -28
0 0 0 0 0 0 0 0 0 0 -112 -85 -74 -47 -47 -65 -54 -55 -43 -51 -32 -33 -17 -18 -11 -5 -5 -4 -12 -27 -20 -26 -29 -19 -21 -18 -15 -22 -14 -16 -34 -26 -28
0 0 0 0 0 0 0 0 0 0 0 -88 -95 -119 -80 -55 -51 -28 -15 -13 -11 -12 -7 -11 -4 -5 -5 0 -3 -8 -30 -31 -43 -39 -28 -21 -51 -40 -43 -30 -24 -19 -16
0 0 0 0 0 0 0 0 0 0 -272 -261 -108 -67 -80 -37 -46 -30 -33 -19 -14 -11 -8 -6 -2 -1 -2 -5 -1 -12 -27 -23 -19 -39 -37 -55 -79 -47 -44 -56 -136 -36 -39
0 0 0 0 0 0 0 0 0 0 -78 -141 -149 -104 -72 -65 -79 -24 -25 -19 -27 -46 -34 -39 -11 0 -1 -2 -4 -12 -11 -34 -44 -34 -52 -50 -41 -55 -63 -54 -64 -31 -31
0 0 0 0 0 0 0 0 0 0 -200 -162 -138 -117 -99 -41 -8 -40 -27 -28 -11 -8 -8 0 0 0 -8 0 0 0 -28 -28 -31 -58 -52 -38 -33 -33 -48 -30 -29 -143 -45
0 -2 0 0 0 0 0 -4 0 0 -139 -174 -228 -74 -59 -6 -19 -54 -40 -11 -1 0 0 0 0 0 0 0 0 0 0 -6 -16 -19 -16 -25 -41 -54 -8 -37 -51 -5 -2
-3 -1 0 0 0 0 0 -1 0 -6 -127 -174 -128 -36 -27 -28 -33 -77 -112 -10 -6 0 0 -30 -13 0 -30 -20 -1 0 -50 -13 -9 -16 -5 -8 -10 -3 -9 -1 -5 -7 0
Wind_Speed
14 18 20 nan nan nan nan nan 13 15 14 11 9 6 6 4 4 5 5 6 8 7 7 9 12 13 12 11 11 10 7 5 5 5 2 3 3 4 5 3 2 3 5
17 19 21 23 nan nan nan nan nan 13 15 13 11 9 6 5 3 2 3 3 4 6 7 6 6 10 13 12 12 11 8 5 5 4 4 3 2 4 3 3 2 2 3
25 22 25 26 24 nan nan nan nan nan 17 15 14 11 9 6 5 2 2 3 2 2 3 3 4 6 9 12 14 13 12 10 7 7 7 9 8 7 5 4 4 4 5
25 27 26 26 25 24 nan nan nan nan nan nan 16 15 13 11 8 6 4 4 4 3 1 0 1 2 4 8 10 13 15 15 13 11 11 11 11 10 8 6 7 8 7
26 22 24 25 nan 29 nan nan nan nan nan nan 21 19 18 16 14 12 10 7 6 5 6 4 2 1 4 4 12 14 15 17 17 16 14 14 14 13 11 12 11 9 10
30 22 23 28 29 nan nan nan nan nan nan nan nan 21 20 19 17 15 15 12 10 9 8 8 6 5 4 5 5 6 14 16 16 19 18 15 15 14 14 14 13 13 14
37 30 31 29 26 29 31 35 33 31 nan nan nan nan 20 18 18 17 14 15 13 12 10 11 10 9 9 8 8 9 7 9 12 17 16 17 16 16 14 15 14 17 14
49 38 35 31 24 27 32 33 33 35 32 31 29 nan 22 20 19 16 15 15 15 15 14 12 11 11 13 14 11 10 10 10 12 18 18 19 18 17 15 13 17 17 16
63 62 52 42 32 28 26 28 35 37 36 32 34 31 28 23 nan 18 22 17 14 13 16 15 13 11 14 18 14 11 11 10 15 12 13 18 20 19 21 20 18 18 17
56 62 56 54 49 31 27 29 34 38 37 39 35 34 29 28 29 24 24 21 14 16 16 16 14 11 18 22 17 14 9 11 15 13 14 14 17 22 25 23 20 20 21
49 52 58 59 51 43 42 38 37 36 40 40 37 36 34 33 32 32 30 23 19 19 17 17 18 17 15 23 21 14 11 17 16 14 15 16 18 23 29 28 24 24 24
nan 48 58 62 62 50 46 43 39 34 34 36 39 39 36 35 35 34 32 27 24 22 19 21 20 22 22 20 25 13 10 18 17 18 18 17 19 23 27 26 25 26 24
nan nan nan 53 54 51 49 41 35 34 32 32 35 39 38 39 38 34 35 32 25 27 26 24 24 26 24 26 21 19 19 20 19 19 20 19 21 23 24 27 26 25 25
nan nan nan nan nan nan nan nan 43 35 31 28 28 31 36 40 40 41 41 40 30 31 29 31 31 32 31 28 31 26 25 23 24 23 22 22 23 25 24 24 26 30 29
nan nan nan nan nan nan nan nan 33 25 30 29 29 27 32 35 34 42 44 43 40 36 41 37 33 31 28 27 30 29 28 27 26 25 25 26 26 26 24 28 27 31 31
nan nan nan nan nan nan nan nan 24 20 24 25 28 27 29 28 39 41 41 41 41 52 44 37 34 32 29 29 27 30 33 29 27 27 28 29 29 29 28 31 31 32 32
nan nan nan nan nan nan nan nan nan 41 36 33 31 25 24 28 35 37 39 36 42 50 38 36 33 33 32 31 31 32 32 34 35 30 28 28 30 31 34 32 33 34 35
nan nan nan nan nan nan nan nan nan 42 44 54 43 31 24 24 31 33 40 49 45 36 30 32 31 31 30 30 31 32 33 35 37 37 35 34 33 33 34 34 35 37 40
nan nan nan nan nan nan nan nan nan nan 49 53 56 53 40 36 35 41 39 32 33 35 35 30 30 28 31 29 30 30 30 31 33 34 35 37 39 39 37 38 41 44 47
nan nan nan nan nan nan nan nan nan nan nan 58 60 52 53 56 50 46 43 38 36 36 37 37 37 35 34 34 34 32 32 35 36 36 36 38 40 42 40 42 43 46 45
nan nan nan nan nan nan nan nan nan nan nan 60 59 52 55 56 60 47 48 40 41 41 37 40 41 37 37 35 33 33 32 31 33 36 39 38 43 46 48 48 47 45 44
nan nan nan nan nan nan nan nan nan nan nan nan 64 59 56 54 43 54 59 55 54 56 51 50 52 52 50 51 45 43 43 44 46 50 49 48 44 45 47 43 43 42 45
nan nan nan nan nan nan nan nan nan nan nan 63 66 66 60 61 61 62 62 64 63 63 61 60 58 58 60 59 57 56 55 57 57 56 54 52 46 41 43 44 42 nan nan
nan nan nan nan nan nan nan nan nan nan nan 61 59 69 60 59 60 66 67 69 70 70 70 70 69 69 70 68 64 65 61 66 62 59 54 53 57 54 54 nan nan nan 65
nan nan nan nan nan nan nan nan nan nan nan nan nan 56 57 58 66 64 63 66 70 75 77 75 72 76 82 81 76 77 73 74 71 68 69 74 75 nan nan nan nan 63 57
nan nan nan nan nan nan nan nan nan nan nan nan nan 64 59 61 59 59 61 58 64 70 74 74 77 85 83 82 82 83 80 86 83 nan 81 nan 84 nan 69 63 69 67 nan
Wind_Direction
223 215 225 nan nan nan nan nan 230 222 222 216 220 211 178 181 154 146 127 111 107 133 174 181 172 175 173 183 177 167 167 164 150 167 168 158 156 168 170 155 121 77 55
230 229 220 220 nan nan nan nan nan 240 228 229 223 232 196 187 226 149 146 128 98 109 130 178 173 191 174 185 197 188 182 195 203 186 220 225 260 221 197 163 206 299 359
225 231 230 223 223 nan nan nan nan nan 246 231 232 234 235 222 224 216 214 201 154 109 110 117 147 217 196 194 191 196 198 200 216 225 218 250 255 250 233 258 255 283 310
241 231 232 230 224 224 nan nan nan nan nan nan 235 233 237 245 250 245 240 263 233 215 243 320 133 273 225 218 217 211 207 209 216 220 227 236 252 250 258 255 251 276 287
240 238 230 233 nan 226 nan nan nan nan nan nan 242 241 240 243 245 252 255 249 260 242 232 248 252 307 316 270 234 230 229 225 224 226 231 239 244 249 244 254 260 258 274
236 236 234 234 235 nan nan nan nan nan nan nan nan 245 247 239 255 267 262 260 263 265 240 240 255 283 282 295 282 258 248 242 233 236 234 232 240 251 257 256 261 262 271
225 229 235 238 237 240 238 242 242 241 nan nan nan nan 248 247 264 270 276 252 256 262 269 256 253 265 294 282 272 284 278 277 261 244 237 242 243 265 263 259 271 276 281
220 219 235 237 236 240 239 241 243 242 242 244 246 nan 244 241 258 272 277 259 252 256 259 264 268 273 290 303 297 277 273 270 276 265 259 251 256 262 276 267 266 275 287
222 220 228 232 237 241 242 240 238 241 243 243 247 248 253 244 nan 262 262 255 253 251 256 264 272 277 288 305 302 288 271 272 278 305 291 267 268 266 270 263 265 273 275
220 222 226 223 221 237 242 246 243 238 237 238 238 246 249 252 260 264 265 249 250 253 254 253 280 283 286 292 295 288 283 271 274 286 294 290 275 267 277 280 272 280 285
224 219 216 221 221 226 233 240 245 245 244 240 240 240 243 249 255 269 275 260 253 250 250 252 249 279 279 284 296 288 294 274 285 291 291 286 275 264 264 276 284 284 289
nan 225 221 221 220 229 228 228 229 235 241 238 239 237 239 243 253 260 272 284 269 256 254 251 250 266 275 281 280 296 277 271 278 279 285 290 279 265 266 275 281 286 290
nan nan nan 216 218 214 217 220 223 224 235 240 241 237 238 241 244 256 266 273 276 261 254 251 254 265 268 267 285 284 281 269 276 278 282 288 289 286 280 274 277 281 286
nan nan nan nan nan nan nan nan 219 218 233 233 241 242 240 241 245 247 250 251 256 257 254 249 247 252 260 266 269 277 271 272 275 280 278 279 282 287 293 289 274 276 279
nan nan nan nan nan nan nan nan 228 227 233 230 240 237 241 242 243 251 253 253 253 256 255 254 257 262 265 267 271 278 280 274 275 274 276 277 280 283 287 288 282 281 285
nan nan nan nan nan nan nan nan 238 245 227 237 229 237 234 237 251 255 258 257 261 262 257 259 261 265 267 266 263 265 272 279 278 274 275 280 284 286 284 283 284 284 285
nan nan nan nan nan nan nan nan nan 245 237 227 229 237 230 241 255 258 260 259 258 266 264 263 261 259 261 262 263 264 266 271 275 280 282 281 283 282 282 282 285 288 285
nan nan nan nan nan nan nan nan nan 243 239 216 220 231 231 226 234 249 253 257 256 258 262 261 260 264 264 265 266 270 271 273 277 280 283 284 283 280 279 281 281 282 280
nan nan nan nan nan nan nan nan nan nan 229 220 222 225 220 228 235 243 257 247 253 257 257 259 262 264 266 267 268 273 276 277 278 279 282 282 283 284 285 285 284 285 282
nan nan nan nan nan nan nan nan nan nan nan 227 236 229 230 234 238 241 245 246 248 248 255 259 261 263 266 270 271 273 275 278 278 277 276 276 280 282 283 282 281 282 283
nan nan nan nan nan nan nan nan nan nan nan 230 232 235 236 237 232 234 241 241 247 249 250 256 261 265 270 270 271 273 276 280 281 282 282 283 285 283 282 281 281 283 287
nan nan nan nan nan nan nan nan nan nan nan nan 231 238 239 247 240 241 241 243 243 246 249 253 256 257 258 263 265 262 269 273 276 276 279 284 281 282 285 286 287 287 288
nan nan nan nan nan nan nan nan nan nan nan 233 236 229 232 244 246 244 244 243 244 248 249 252 253 259 260 260 261 262 264 266 266 265 273 274 280 286 287 287 291 nan nan
nan nan nan nan nan nan nan nan nan nan nan 234 238 230 237 245 248 250 252 250 247 248 250 254 254 254 257 260 262 264 264 268 271 274 270 273 282 286 291 nan nan nan 294
nan nan nan nan nan nan nan nan nan nan nan nan nan 242 241 249 251 254 255 252 251 251 253 255 257 257 258 258 257 260 262 262 268 271 273 275 273 nan nan nan nan 283 277
nan nan nan nan nan nan nan nan nan nan nan nan nan 242 244 245 251 257 257 256 255 253 255 255 254 255 256 257 257 257 260 262 263 nan 268 nan 273 nan 272 267 262 276 nan